Location: lozzo di cadore
(46.4899°N, 12.4508°E)
Time: 12:48:39
(UTC+02:00)

Envisat - Pass Details

Date: 06 May 2025
Orbit: 761 x 763 km, 98.3° (Epoch: 13 May)

Event Time Altitude Azimuth Distance (km) Brightness Sun altitude
Rises 03:39:59 0° 19° (NNE) 3,234 7.6 -18.1°
Reaches altitude 10° 03:42:24 10° 25° (NNE) 2,303 6.7 -17.9°
Maximum altitude 03:47:16 46° 99° (E) 1,012 3.8 -17.3°
Enters shadow 03:51:31 13° 170° (S) 2,064 4.9 -16.9°
